User: anonymous   Login
Location: Hurecourt
(47.9030°N, 6.0653°E)
Time: 07:26:43
(UTC+00:00)
Language:

Cosmos 1241 Rocket - Orbit

View from above orbital plane
View from above orbital plane
View from above satellite
View from above satellite

Ground track
Ground track

The orbit data is extracted from the following two-line orbital elements,

1 12150U 81006B   20272.87212065 -.00000029 +00000-0 +51815-4 0  9994
2 12150 065.8231 336.4903 0056848 327.6708 032.0876 13.77139753994237
Epoch (UTC): 28 September 2020 20:55:51
Eccentricity: 0.0056848
inclination: 65.8231°
perigee height: 932 km
apogee height: 1016 km
right ascension of ascending node: 336.4903°
argument of perigee: 327.6708°
revolutions per day: 13.77139753
mean anomaly at epoch: 32.0876°
orbit number at epoch: 99423

The dashed part of the orbit path shows where the satellite is in the earth's shadow,  

DLR